Location: Marcé
(47.5801°N, 0.3280°W)
Time: 16:59:35
(UTC+01:00)

SR - Pass Details

Date: 02 December 2021
Orbit: 582 x 872 km, 66.7° (Epoch: 22 January)

Event Time Altitude Azimuth Distance (km) Brightness Sun altitude
Rises 02:15:58 0° 243° (WSW) 2,951 - -59.2°
Reaches altitude 10° 02:18:34 10° 255° (WSW) 2,003 - -58.9°
Maximum altitude 02:22:28 29° 316° (NW) 1,130 - -58.4°
Drops below altitude 10° 02:26:14 10° 17° (NNE) 1,927 - -58.0°
Sets 02:28:41 0° 29° (NNE) 2,819 - -57.7°
